Temp
32 31 30 29 30 32 33 33 33 34 33 33 32 30 28 27 27 31 33 33 33 31 30 30 30 29 29 29 29 29 29 29 28 28 28 28 28 27 27 27 27 27 27 26 26 27 26 26 26 26 26 26 25 25 25 25 25 25 25 24 24 25 25 24 24 24 24 24 24 24 24 24 24 24 24 23 23 23 23 23 23 23 23 23 22 22
32 29 29 31 32 33 33 33 33 33 34 34 32 30 28 27 28 32 34 32 33 31 29 30 30 29 30 29 29 30 29 29 29 28 28 28 28 27 28 27 27 28 27 26 26 26 26 26 26 26 26 25 25 25 25 25 25 25 25 25 25 25 25 25 25 25 24 24 24 24 24 24 24 24 24 24 24 23 23 23 23 23 23 23 22 22
30 29 31 32 31 32 33 32 32 33 34 33 32 29 26 28 30 31 33 33 33 31 29 30 29 28 30 30 30 30 29 29 29 29 28 28 28 27 28 27 27 27 27 26 26 25 25 25 25 25 25 25 25 25 25 25 25 25 25 25 25 25 25 25 25 25 25 24 24 24 24 24 24 24 24 24 24 23 23 23 23 23 23 23 23 22
26 29 32 32 31 32 32 32 32 32 33 32 32 28 26 29 29 27 31 33 33 32 30 30 29 28 30 30 30 30 30 30 29 29 29 28 28 28 28 28 27 27 27 26 26 25 25 25 25 25 25 25 25 25 25 25 25 25 25 25 25 25 25 25 25 25 25 24 24 24 24 24 24 24 24 23 23 23 23 23 23 23 23 23 23 22
28 31 33 31 31 33 32 32 33 31 30 31 32 29 28 30 30 29 31 33 33 32 31 29 26 26 29 29 29 30 30 30 30 29 29 28 28 28 28 28 27 27 27 26 26 26 25 24 24 25 25 25 25 25 25 25 25 25 25 25 25 26 25 25 25 25 25 24 24 24 24 23 23 23 23 23 23 23 23 23 23 23 23 23 22 22
30 32 32 32 32 32 32 32 32 31 29 29 32 33 32 33 32 32 33 31 28 26 29 29 23 23 27 28 29 30 30 30 30 29 29 28 28 28 28 28 27 27 27 26 26 25 25 24 24 24 25 25 25 25 25 25 26 26 26 26 25 26 25 25 25 25 25 24 24 24 23 23 23 23 23 23 23 23 24 23 23 23 23 23 22 22
31 32 32 32 32 32 32 31 32 33 28 26 31 34 35 35 33 32 32 29 24 24 29 31 24 22 25 27 29 29 29 30 29 29 29 28 28 28 28 27 27 27 27 26 26 25 25 25 24 24 24 25 25 25 25 26 26 26 26 26 25 26 25 25 25 25 25 24 24 24 23 23 23 23 23 23 24 24 24 23 23 23 23 22 22 22
32 33 32 33 33 32 31 30 32 34 29 27 33 36 35 34 32 32 31 28 26 27 29 30 27 23 22 26 29 29 29 29 29 29 29 28 28 28 28 28 27 27 27 26 26 26 25 25 24 24 24 25 25 25 25 25 25 26 26 26 26 25 25 25 25 25 24 24 24 24 24 23 23 23 24 24 24 23 23 23 23 22 22 22 22 22
33 33 32 33 32 31 31 31 33 34 31 31 35 35 34 34 33 33 31 28 28 27 24 25 27 24 22 25 29 29 28 28 29 29 29 29 28 28 28 28 28 27 27 27 26 26 25 25 25 25 24 25 25 25 25 25 26 26 26 26 26 25 25 25 24 24 24 24 24 24 24 23 23 24 24 24 23 23 23 23 22 22 22 22 22 22
34 33 33 33 32 31 32 33 34 34 34 35 35 34 34 34 33 33 31 27 27 25 22 23 25 23 22 24 27 27 27 28 29 29 29 29 28 28 28 28 28 27 27 27 27 26 26 25 25 25 25 25 25 25 25 26 26 25 25 25 25 25 25 25 24 24 24 24 24 24 23 23 23 24 24 24 23 23 23 22 22 22 22 22 21 21
33 34 34 33 33 33 34 34 33 34 35 35 35 34 33 33 32 32 30 27 24 23 22 24 25 25 23 23 25 27 28 29 30 30 30 30 29 28 28 28 28 27 27 27 27 26 26 26 25 25 24 24 24 25 25 25 25 25 25 25 25 25 24 24 24 24 24 24 24 24 23 23 24 24 23 23 23 23 23 22 22 22 22 21 21 21
33 33 33 34 35 35 35 34 34 34 34 34 35 33 29 28 28 27 26 25 23 22 23 25 26 25 22 23 27 29 31 31 31 31 30 30 29 29 28 28 28 28 27 27 27 26 26 26 25 25 24 24 24 24 24 24 25 25 25 25 24 24 24 24 24 24 24 24 24 23 23 23 24 24 24 23 23 23 22 22 22 22 21 21 21 21
31 32 33 34 35 36 34 33 32 33 33 33 32 29 25 23 24 23 22 23 22 22 25 26 26 24 23 26 29 30 31 32 32 32 31 30 30 29 29 29 28 28 27 27 27 27 26 26 25 24 24 24 24 24 24 24 24 24 24 24 24 24 24 24 24 24 24 24 24 24 23 23 24 24 24 24 23 23 23 22 22 21 21 21 21 21
27 31 33 33 33 35 34 31 29 30 32 32 29 26 23 23 22 22 22 22 22 23 25 26 26 23 23 28 32 31 31 32 32 32 32 31 30 30 29 29 29 28 28 27 27 27 26 26 25 24 24 24 24 24 24 24 24 24 24 24 24 24 24 24 24 24 24 24 24 24 23 24 24 24 24 24 23 23 23 22 22 21 21 21 21 21
23 25 30 32 32 34 35 33 31 32 32 32 33 30 25 23 23 22 22 22 22 23 24 25 25 23 23 29 34 33 32 33 33 33 33 32 31 30 30 29 29 28 28 27 27 27 26 26 25 25 24 24 24 24 24 24 24 24 24 24 24 24 24 23 23 23 23 23 24 23 24 24 24 24 24 24 23 23 23 22 22 21 21 21 21 21
23 23 31 33 33 35 35 34 35 34 31 31 34 31 26 27 27 24 23 23 23 23 23 23 24 25 28 32 34 33 32 32 32 32 32 32 31 30 30 29 29 28 28 27 27 27 26 26 25 25 25 24 24 24 24 24 24 24 24 24 24 24 24 23 23 23 23 23 23 23 24 24 24 24 24 23 23 23 22 22 22 21 21 21 21 21
23 24 33 34 33 35 35 35 37 33 30 30 29 27 28 32 31 25 22 24 23 22 23 23 24 26 29 31 33 32 32 32 32 32 32 31 31 30 29 29 29 28 28 27 27 27 27 26 25 25 25 25 25 24 24 24 24 24 24 24 24 24 23 23 23 23 23 23 23 23 24 24 24 24 24 23 23 23 22 22 22 21 21 21 21 21
26 25 32 34 32 34 35 35 36 35 34 31 27 29 31 31 31 27 23 23 23 22 23 23 23 24 24 27 31 32 31 31 31 32 32 31 30 30 30 29 29 29 28 28 27 27 27 26 25 25 25 25 25 25 25 25 25 24 24 24 24 24 23 23 23 23 23 23 23 23 24 24 24 24 24 23 23 23 22 22 21 21 21 21 21 21
29 24 28 34 33 34 36 34 32 34 36 33 31 33 32 26 25 25 23 23 22 22 23 23 23 24 23 26 30 32 32 31 30 30 31 30 30 30 30 29 29 29 28 28 27 27 27 26 25 25 25 25 25 25 25 25 24 24 24 24 24 24 24 24 23 23 23 23 23 23 24 24 24 24 23 23 23 22 22 22 21 21 21 21 21 21
31 26 25 32 34 34 34 31 28 29 33 34 33 34 32 28 26 25 24 24 23 22 23 23 23 23 26 30 33 35 35 32 29 30 30 30 30 30 30 29 29 28 28 28 28 27 27 26 26 26 26 26 26 25 25 25 24 24 24 24 24 24 24 23 23 23 23 23 23 23 24 24 24 24 23 23 23 22 22 21 21 21 21 21 21 21
32 27 24 29 33 31 30 30 30 30 31 31 30 29 29 29 28 27 26 24 24 23 22 23 23 24 29 33 35 38 36 31 29 30 30 30 30 30 30 30 29 29 28 28 28 27 27 26 26 26 26 26 26 26 25 25 25 24 24 24 24 24 23 23 23 22 22 23 23 23 23 24 24 23 23 23 23 22 22 22 21 21 21 21 21 21
30 28 24 25 27 26 28 33 34 34 33 32 30 29 29 29 27 25 24 24 25 24 23 23 22 25 31 32 33 37 34 29 29 30 30 30 30 30 30 30 30 29 28 28 28 28 27 27 26 26 26 26 26 26 25 25 25 24 24 24 24 24 23 23 23 22 22 22 22 23 23 24 24 23 23 23 23 22 22 22 21 21 21 21 21 21
32 30 26 24 26 28 31 34 33 33 35 34 33 33 33 31 27 24 23 23 24 23 23 24 22 26 33 32 32 35 32 29 29 30 30 30 29 30 30 30 30 29 29 29 28 28 28 27 26 26 26 26 26 26 26 25 25 25 25 24 24 24 23 23 23 22 22 22 23 24 23 23 24 23 23 23 23 22 22 22 21 21 21 21 21 21
32 30 25 23 27 30 32 34 33 34 34 32 33 34 33 32 31 29 27 26 25 23 23 23 22 26 32 30 29 30 29 29 29 29 30 30 29 30 30 30 30 29 29 29 28 28 28 26 26 26 26 26 26 26 26 25 25 25 25 24 24 24 23 23 22 21 22 23 24 24 23 23 24 23 23 23 23 22 22 22 22 21 21 21 22 22
29 28 26 23 24 25 27 29 29 30 32 31 32 34 33 33 33 31 29 28 25 23 24 24 22 26 31 30 29 29 29 29 30 29 30 30 29 30 29 30 30 29 29 29 28 28 28 27 26 25 25 25 26 26 26 25 25 25 25 24 24 24 23 23 22 21 22 23 24 23 23 23 23 23 23 23 23 22 22 22 22 21 22 22 22 22
30 29 27 23 22 22 23 24 25 27 30 31 33 34 33 33 33 30 27 25 24 23 24 24 23 27 31 31 30 30 29 30 30 29 30 30 30 30 29 29 29 29 29 29 28 28 28 27 27 26 25 25 26 26 25 25 25 25 25 24 24 24 23 22 22 22 22 23 23 23 23 23 23 23 23 23 23 22 22 22 22 22 22 22 22 22
31 31 29 26 24 24 24 25 29 30 29 29 30 32 33 33 33 31 26 24 24 24 23 25 26 26 29 32 32 30 29 30 30 30 30 30 29 29 29 29 29 29 29 29 28 28 27 27 27 26 25 25 26 26 26 25 25 25 25 24 24 24 23 22 21 21 22 24 24 22 22 22 23 23 23 23 23 23 22 22 22 22 22 22 22 22
31 28 29 29 27 28 29 30 32 31 29 29 30 31 32 32 32 30 26 26 27 24 22 26 28 26 29 33 33 31 30 30 30 30 30 30 29 29 29 29 29 29 28 28 28 28 27 27 27 26 25 25 26 26 25 25 25 25 25 24 24 23 22 22 21 21 22 23 22 21 21 22 23 23 23 23 23 23 22 22 22 22 22 22 22 22
31 28 28 29 28 30 32 32 33 32 31 32 31 31 32 32 30 29 28 29 29 25 25 28 28 27 31 34 32 31 31 31 31 30 30 30 29 29 29 28 29 29 29 28 28 27 27 27 27 26 25 25 25 25 25 25 25 25 24 24 23 23 22 22 21 21 22 21 20 20 22 23 24 23 23 23 23 23 23 22 22 22 22 22 22 22
31 29 31 30 28 29 31 32 33 32 30 31 32 32 33 32 31 31 31 31 31 29 30 32 29 29 32 34 33 32 31 31 31 30 30 30 29 29 29 29 29 29 29 28 27 27 27 27 27 26 26 25 25 25 25 25 25 24 24 24 23 23 22 22 22 21 21 20 20 20 22 23 22 22 22 23 23 23 23 22 22 22 22 22 22 22
29 28 31 31 26 27 30 32 32 32 30 29 30 32 33 31 31 31 31 30 30 30 31 30 28 29 32 33 32 31 30 30 31 30 30 30 29 29 29 29 29 29 28 28 28 27 27 27 26 26 26 25 24 25 25 25 25 24 24 23 23 23 22 22 21 21 20 20 19 20 21 20 20 21 22 23 23 23 22 22 22 22 21 22 22 22
30 29 30 29 24 24 29 31 30 31 30 28 28 30 31 30 30 30 31 31 30 30 29 26 25 28 31 31 31 30 30 31 31 31 30 29 29 29 29 29 29 28 28 28 27 27 27 27 26 26 25 24 24 25 25 25 24 24 23 23 23 22 22 21 21 21 20 19 19 19 20 19 19 20 22 22 22 23 22 22 21 21 21 21 22 22
31 29 28 27 23 23 28 30 29 29 26 24 27 30 31 32 32 31 31 31 31 31 30 27 27 30 31 30 31 30 30 31 31 30 30 29 28 28 29 29 29 29 29 28 28 28 27 26 26 25 24 24 25 25 25 25 24 24 24 23 23 22 21 21 21 20 19 19 19 19 19 19 19 20 21 22 22 22 22 21 20 21 21 21 22 22
30 29 28 27 24 23 27 29 28 25 23 24 29 32 32 32 31 30 29 28 28 29 29 29 29 31 30 30 31 30 29 30 29 29 29 28 28 29 29 29 29 29 29 28 28 28 27 27 25 23 24 25 25 25 25 25 24 24 23 23 22 21 20 20 20 19 19 19 19 19 19 19 19 20 21 22 23 22 21 20 20 21 21 21 21 21
30 29 28 27 25 24 25 26 24 22 24 28 31 31 30 30 30 29 28 28 27 27 29 30 29 29 30 30 30 30 30 30 29 30 30 29 28 30 30 30 30 30 30 29 30 30 30 28 25 22 23 25 25 25 25 25 24 24 23 23 22 21 20 20 19 19 20 20 19 20 20 19 20 20 21 22 22 21 20 20 20 20 20 21 21 21
30 30 28 26 25 24 24 23 23 23 27 30 31 30 30 30 31 30 28 28 27 26 27 30 28 27 28 28 28 29 30 31 30 30 30 29 29 31 32 32 31 30 31 32 32 32 31 29 27 26 25 25 25 25 25 24 24 23 23 22 21 21 20 20 20 19 19 19 19 19 20 19 20 20 22 22 21 20 19 20 20 20 20 21 21 21
30 30 28 26 24 24 23 22 23 24 26 28 30 30 29 29 31 31 28 27 28 26 25 28 28 28 28 28 28 28 29 30 31 30 29 29 29 31 33 33 32 33 34 32 29 30 30 31 31 31 28 26 25 25 25 24 24 23 22 21 21 20 20 20 19 19 19 19 19 19 20 20 20 21 21 21 20 20 19 19 19 19 20 21 21 21
28 28 29 26 23 24 23 22 23 23 22 25 28 29 28 27 29 32 30 28 28 26 25 26 28 28 29 28 28 29 30 31 31 31 31 30 29 29 30 30 30 32 31 27 25 26 28 29 29 29 27 25 25 24 24 24 23 22 21 20 20 20 20 19 19 19 18 19 19 19 19 20 20 21 21 20 20 19 19 19 19 19 20 21 21 21
28 27 28 26 24 24 23 22 22 22 23 26 28 28 28 26 27 31 29 26 27 26 25 26 28 28 28 29 29 31 32 31 31 31 31 30 29 29 29 30 29 27 25 24 24 26 26 26 26 25 25 24 23 23 23 23 22 21 20 20 20 20 19 19 19 19 18 18 18 18 19 19 21 21 21 20 19 19 20 19 19 20 21 21 21 22
28 27 27 25 23 23 23 22 22 22 24 27 27 26 26 26 29 29 25 24 26 26 24 27 28 27 27 28 29 30 30 30 31 29 28 27 27 27 28 29 29 27 25 23 24 26 26 25 25 24 23 23 23 22 22 22 21 21 20 20 20 19 20 20 20 19 18 17 17 18 19 20 21 21 21 20 20 19 20 20 20 20 21 21 21 21
25 26 24 23 23 23 23 22 22 23 26 27 26 25 25 26 28 26 23 24 26 24 24 26 27 26 26 27 28 28 27 27 27 26 26 27 28 27 26 25 25 25 24 23 24 26 25 24 24 23 23 23 23 22 22 22 21 20 20 20 19 19 20 20 19 19 18 18 18 18 19 20 21 21 20 20 20 19 20 20 20 21 21 21 21 20
23 24 23 23 22 22 22 22 21 23 26 25 24 24 25 26 26 24 24 25 25 23 24 25 25 25 26 26 26 26 26 26 27 27 27 27 27 27 26 25 25 24 24 23 24 24 23 22 22 22 22 22 22 22 22 22 21 20 19 19 19 19 20 20 19 19 18 18 18 18 19 20 21 21 20 20 19 20 20 21 21 21 21 21 20 20
23 23 22 22 22 22 22 22 21 23 25 24 24 26 26 25 25 24 24 24 23 23 23 23 23 25 25 25 26 26 27 27 28 28 28 27 26 26 26 26 26 25 23 23 23 23 22 21 20 20 20 21 21 21 21 21 20 19 19 19 19 19 19 20 19 19 18 18 19 19 20 20 20 20 20 20 20 21 21 21 21 20 20 20 20 19
23 23 22 22 22 22 22 22 22 23 24 23 24 26 24 23 24 24 23 22 22 23 22 22 23 23 24 25 25 25 26 26 26 27 28 28 27 27 27 26 25 23 22 22 22 22 21 20 19 19 19 20 20 20 20 20 20 19 18 18 18 19 19 19 19 18 19 19 19 19 20 20 20 20 20 21 21 21 21 21 20 20 20 20 19 19
24 25 24 22 21 22 22 22 23 23 23 22 23 23 22 22 23 23 23 23 22 22 22 22 22 22 23 24 24 24 24 24 24 25 26 27 27 27 27 25 23 21 21 20 21 21 21 20 19 18 18 18 19 19 19 20 20 19 18 18 19 19 19 19 19 19 19 20 20 19 20 20 21 21 22 22 22 21 20 20 20 20 19 19 19 19
23 24 24 23 22 22 23 23 23 23 22 22 22 22 22 23 23 23 23 22 22 22 22 22 22 22 22 22 23 23 24 24 24 24 24 24 25 26 25 24 21 19 19 20 20 20 20 19 19 18 18 18 18 18 19 19 19 18 18 18 19 19 19 19 19 19 19 19 19 19 20 21 22 22 22 22 21 20 20 20 20 19 19 18 18 19
23 23 23 23 22 22 23 23 23 23 22 22 22 22 22 22 22 22 22 21 21 22 22 22 22 23 22 22 23 23 23 23 24 24 24 24 24 24 25 25 22 19 19 20 20 20 20 19 18 18 17 17 18 18 18 18 18 18 18 19 19 19 19 19 19 19 19 19 19 20 20 21 22 22 21 20 20 19 19 20 20 19 19 19 18 18
23 24 23 22 22 23 23 23 22 22 22 22 22 22 22 22 22 21 21 21 21 21 21 22 22 22 22 23 22 22 23 23 23 24 25 25 24 24 25 25 22 20 19 20 20 20 20 19 18 18 18 17 17 18 18 18 18 18 18 19 19 19 19 19 19 19 19 19 20 20 21 21 21 21 20 19 19 19 19 19 19 19 18 18 18 18
23 23 23 22 22 22 22 22 21 21 21 21 21 21 21 21 21 21 21 22 22 22 22 22 22 22 22 22 22 23 24 23 23 23 24 24 25 25 24 22 19 19 19 19 19 20 20 19 18 18 18 18 17 17 17 18 18 18 18 19 20 20 19 19 19 19 20 20 20 20 20 20 20 19 19 18 18 18 18 18 18 18 18 18 18 18
22 22 22 22 22 22 21 22 22 21 21 21 21 22 21 21 21 21 22 22 22 22 22 22 22 22 22 22 22 23 23 23 22 22 22 23 24 24 23 20 17 18 19 19 19 19 19 19 19 18 18 18 18 17 17 18 18 18 19 19 20 21 21 20 20 20 21 21 19 18 19 19 19 18 19 18 18 17 17 16 16 17 17 17 17 17
20 20 20 21 22 22 22 22 22 22 22 21 21 22 22 22 22 22 22 22 22 22 22 22 22 22 22 21 21 21 21 22 22 21 22 23 22 21 20 19 18 18 19 19 19 19 19 19 19 18 18 18 18 18 18 18 18 19 20 20 21 21 21 21 21 21 21 20 19 17 18 19 18 18 18 18 17 17 17 16 15 15 15 15 16 16
Height
733 748 755 755 755 752 750 750 749 749 753 758 764 770 772 775 775 766 761 754 752 770 779 774 777 780 779 779 776 775 777 779 781 782 781 781 781 781 782 782 782 783 781 779 782 784 785 788 790 792 794 796 798 800 802 804 805 807 809 810 811 813 815 816 817 819 820 821 822 823 823 824 824 826 826 827 827 828 828 828 829 829 830 830 831 831
735 753 754 746 745 743 742 745 747 749 753 755 760 768 772 773 770 760 757 755 752 767 779 774 779 781 776 776 774 774 778 779 777 779 780 778 778 778 778 779 778 778 778 778 781 782 784 787 788 791 792 794 796 798 800 802 804 806 807 808 810 811 813 814 815 817 818 819 819 820 821 822 824 824 825 826 826 827 827 827 827 828 828 829 829 830
748 752 745 737 739 740 741 744 748 752 753 756 759 766 774 770 765 762 757 755 754 766 778 778 782 784 776 773 773 772 773 772 770 771 772 773 776 776 775 776 776 777 778 778 779 781 783 785 786 789 790 792 793 795 798 800 802 804 805 807 808 809 811 812 814 815 816 817 818 820 821 822 823 823 824 825 825 826 826 826 826 826 827 827 828 829
756 747 735 733 737 741 745 745 749 754 754 757 759 765 772 767 767 771 764 760 758 764 774 779 784 786 781 778 776 771 768 767 767 767 767 769 771 772 770 771 773 775 777 778 778 779 781 783 785 786 788 789 792 793 796 798 800 802 803 805 806 807 809 810 812 813 815 816 818 819 820 821 822 822 823 823 824 824 824 824 825 825 826 826 826 827
750 737 727 732 738 740 745 747 750 756 759 758 756 760 765 762 763 764 762 762 763 767 771 779 795 796 786 788 784 773 770 769 768 769 770 769 767 767 768 769 770 770 772 774 776 776 778 780 782 783 785 787 790 791 793 795 797 799 800 802 804 805 807 808 810 812 814 815 817 818 819 820 820 821 822 822 823 823 823 823 824 824 824 825 825 826
742 729 725 734 739 740 744 748 749 752 759 760 753 751 752 754 758 759 759 765 778 786 775 778 808 811 789 788 787 777 776 774 770 771 772 770 768 769 770 770 769 768 769 770 771 772 774 776 779 781 783 785 787 788 790 792 794 796 798 800 802 804 805 807 808 810 812 814 815 816 817 818 818 819 820 820 821 821 822 822 823 824 824 824 825 825
734 725 725 733 737 741 745 748 744 744 758 764 749 740 742 747 755 760 760 767 783 788 771 768 797 810 796 788 784 778 779 776 772 771 770 769 769 768 769 768 768 768 768 769 769 770 771 774 776 778 780 781 783 785 787 790 792 794 796 798 800 802 803 805 807 809 810 811 813 813 814 815 816 817 818 819 820 820 821 821 822 823 823 824 824 825
726 725 729 731 735 742 747 748 740 737 755 760 738 732 741 746 754 758 758 765 770 770 771 770 780 800 803 788 777 777 781 780 775 772 769 767 766 765 765 764 765 765 765 767 769 769 769 770 772 774 776 778 779 782 785 787 790 792 794 796 798 800 801 803 805 806 808 809 810 811 813 814 815 815 817 818 819 819 820 821 821 822 822 823 823 824
720 726 730 730 737 743 742 739 732 733 748 744 728 731 738 742 748 751 755 762 761 769 789 786 777 797 804 784 774 778 783 783 776 769 765 762 762 762 762 761 761 761 761 762 764 765 766 767 768 770 772 775 777 780 782 784 787 789 792 794 796 798 799 801 803 804 806 807 808 810 811 812 813 814 816 816 817 818 819 820 821 821 822 822 823 823
718 718 719 724 735 737 732 728 726 731 738 729 724 733 737 739 744 748 755 763 765 778 796 788 777 793 800 786 781 784 785 781 770 761 758 757 758 758 757 758 757 758 758 759 760 761 762 763 765 768 771 773 776 777 780 782 784 787 789 791 793 795 796 798 800 802 803 805 806 808 809 810 812 813 814 815 816 817 818 819 820 820 821 821 822 822
715 708 710 716 722 722 720 721 722 725 725 721 728 737 742 746 747 751 757 761 777 790 788 779 771 780 794 789 781 776 769 760 756 756 754 753 754 753 752 753 753 755 755 756 758 758 760 762 765 768 770 772 774 776 778 780 782 784 786 788 790 792 794 796 797 799 801 803 804 805 807 808 810 811 812 813 814 816 817 818 819 820 820 821 821 822
718 715 715 710 707 709 715 720 720 719 719 725 734 741 752 759 758 764 767 769 790 796 778 768 766 775 789 784 769 758 745 739 744 748 748 747 747 747 747 747 748 750 752 754 756 757 759 762 765 767 768 770 773 774 776 778 779 782 783 786 788 789 791 793 795 797 798 800 802 803 805 806 808 809 810 811 813 814 815 816 817 818 819 820 821 821
725 721 716 709 703 703 716 727 726 723 724 732 740 748 764 777 780 787 788 786 794 787 766 762 767 778 780 763 752 749 739 734 735 732 733 736 737 739 742 742 743 746 749 752 753 755 757 759 761 764 766 768 770 771 774 776 777 779 781 783 784 786 788 790 792 794 796 798 800 801 803 805 806 807 809 810 811 812 813 814 816 817 818 819 819 820
735 725 714 716 712 701 711 729 734 733 732 737 743 751 767 782 794 803 801 798 795 777 760 760 769 781 776 752 740 740 732 724 721 719 720 723 728 732 734 735 739 743 746 748 750 752 754 755 757 759 762 764 766 768 770 773 775 777 778 780 782 783 785 788 790 792 794 796 798 800 801 803 805 806 808 809 810 811 812 813 814 815 816 817 817 818
746 741 720 717 716 704 706 716 721 725 729 732 731 739 754 764 776 789 791 792 789 774 765 769 774 778 769 743 725 722 719 714 714 713 713 718 724 727 729 732 737 740 742 744 747 748 749 750 752 755 758 760 762 764 767 769 771 774 775 776 778 780 782 785 787 790 792 794 796 798 800 802 804 805 807 808 809 810 811 812 813 813 814 815 816 817
743 741 714 705 704 700 705 705 702 715 729 729 724 734 746 742 744 762 771 769 770 771 772 773 767 757 744 725 713 715 716 715 717 716 717 722 724 727 731 734 736 738 739 741 743 744 744 747 750 753 755 757 759 761 763 765 767 769 771 773 775 777 779 782 784 787 789 792 794 796 799 800 802 804 805 806 807 809 810 811 812 813 814 814 815 816
739 734 708 702 702 695 700 699 695 710 726 728 729 736 734 723 726 748 764 762 763 771 772 767 757 746 739 729 717 718 719 719 721 720 720 721 723 727 731 731 733 734 735 736 737 738 741 744 747 749 752 754 756 759 759 760 762 763 766 769 771 774 777 780 782 784 787 790 792 794 796 798 800 802 803 804 806 807 809 810 811 812 813 814 815 815
727 731 710 702 708 696 689 694 693 695 705 720 730 725 719 724 728 738 757 769 775 776 767 761 755 749 752 744 726 722 725 724 721 718 718 720 723 727 726 726 728 728 729 731 732 734 737 740 743 745 748 750 751 753 754 755 757 759 762 765 767 770 773 775 778 781 784 787 789 791 793 796 798 799 801 803 804 806 807 809 810 811 812 812 814 814
715 731 718 700 706 697 684 698 707 696 692 705 712 706 714 737 743 741 753 765 776 779 768 759 755 750 749 740 725 724 724 722 722 719 719 721 722 721 720 722 725 725 727 729 730 734 735 736 739 742 744 746 748 750 751 753 756 758 761 762 764 767 769 772 776 779 782 784 786 789 791 794 796 798 800 801 803 804 805 807 808 809 811 811 812 813
708 728 727 704 698 697 693 705 717 710 699 699 704 706 711 725 732 735 742 746 757 772 771 761 756 747 735 723 715 712 711 715 722 721 718 717 714 713 714 718 722 723 725 727 728 730 731 732 735 737 740 742 743 746 748 751 755 757 759 761 762 765 768 772 775 777 779 782 785 788 791 793 795 797 799 800 801 802 803 805 807 808 810 810 811 812
704 721 728 712 701 704 707 706 707 709 710 710 715 720 718 717 721 726 733 736 739 755 764 762 758 740 718 710 706 699 701 710 714 713 712 710 708 709 711 714 717 719 721 722 723 725 726 728 731 733 736 738 740 743 746 750 753 755 757 759 760 763 766 769 771 774 777 780 784 788 790 792 794 795 797 798 799 801 802 804 806 807 809 810 810 811
705 715 722 719 713 714 709 695 690 694 700 705 711 715 714 715 722 732 742 739 730 738 748 752 754 733 706 703 700 693 698 706 705 705 706 706 706 708 709 710 712 714 716 717 718 720 722 724 727 730 733 737 740 743 745 748 750 753 755 756 757 761 763 765 768 772 775 780 785 789 791 792 793 794 795 796 798 799 800 802 804 805 807 808 808 809
693 704 716 719 713 709 700 686 686 688 688 693 697 699 703 707 714 729 742 737 729 736 740 743 749 728 701 699 697 691 696 701 701 702 703 704 704 704 706 706 708 710 710 711 713 715 718 719 723 727 730 734 736 738 740 743 746 748 749 752 755 757 759 762 766 770 774 778 781 784 788 790 791 792 793 795 796 798 799 800 801 803 804 805 805 806
687 701 715 718 708 700 691 683 683 683 688 697 696 692 697 701 701 708 719 721 726 736 737 745 753 729 701 699 699 694 697 699 699 700 701 704 704 703 704 704 706 707 706 708 710 712 715 718 722 726 728 730 732 734 737 739 742 744 746 749 751 753 756 760 765 768 770 773 774 776 781 786 788 790 792 793 795 796 797 798 799 800 801 802 803 803
692 702 710 721 725 718 710 703 697 692 693 698 697 692 692 693 696 702 708 715 725 730 728 738 748 726 701 699 699 696 698 698 697 697 697 701 702 702 702 702 703 704 705 707 710 712 715 718 721 723 723 725 727 729 732 734 737 739 741 744 746 749 754 758 761 763 765 768 771 774 778 782 785 787 789 791 793 794 795 797 798 799 799 800 801 802
686 696 699 716 734 737 731 721 709 701 697 694 691 690 689 690 694 701 709 718 726 730 727 727 730 718 703 700 699 698 699 698 698 698 697 697 698 698 699 699 700 702 704 707 709 711 714 715 716 717 718 720 721 724 727 730 732 735 737 740 743 747 752 755 757 758 761 764 767 769 773 778 781 784 786 788 789 791 794 795 795 796 797 797 798 799
680 688 689 699 711 716 714 705 695 693 696 695 691 688 689 690 689 694 708 716 718 726 728 717 712 712 708 702 699 699 700 698 697 697 696 696 696 695 696 697 698 700 702 704 706 708 710 711 712 713 715 716 718 721 724 726 728 731 734 737 741 746 749 751 753 755 757 758 759 765 771 775 778 780 781 784 787 789 791 792 793 794 795 796 796 797
682 689 687 689 691 691 690 687 685 689 691 690 688 686 687 689 690 694 702 705 708 722 727 714 708 710 705 699 697 697 698 697 695 694 693 692 694 694 695 697 699 701 702 702 704 706 708 710 710 711 712 714 716 719 722 725 726 728 732 736 741 744 745 747 749 751 752 754 760 767 770 770 772 775 778 781 784 787 789 790 791 792 794 795 795 795
680 687 685 687 686 682 680 678 678 685 687 685 685 685 683 687 692 693 692 693 698 707 709 704 706 706 696 692 692 689 688 687 686 686 686 688 692 694 696 700 701 701 701 702 704 706 707 709 708 709 710 711 714 717 720 723 725 728 732 736 738 740 741 743 744 746 749 754 759 763 762 762 764 770 776 780 782 785 787 788 790 791 792 793 792 793
673 680 679 684 686 682 680 677 674 680 686 684 683 682 680 683 686 683 685 689 690 690 690 691 700 701 689 682 682 678 678 679 679 682 685 687 692 695 697 699 699 699 700 701 703 704 705 706 705 706 707 709 711 715 717 719 722 726 730 732 734 736 737 738 740 743 746 748 749 750 754 762 767 770 774 778 781 783 785 787 789 790 790 789 789 790
672 679 675 679 688 686 680 676 675 679 685 685 681 679 679 683 684 681 685 690 691 692 692 694 701 699 684 675 675 676 678 681 683 686 687 687 690 692 695 697 697 698 699 700 701 702 702 703 705 706 707 708 709 711 714 717 720 724 727 728 730 731 732 735 737 740 743 744 746 751 760 772 778 777 776 778 780 782 785 788 789 786 786 787 787 788
671 679 677 679 692 690 677 676 679 678 682 686 682 679 679 682 684 682 681 683 686 689 696 704 708 698 682 676 679 682 682 683 684 684 686 687 687 689 692 694 696 697 698 699 700 701 702 703 704 706 706 707 708 710 713 716 719 722 723 725 726 727 730 733 736 741 745 749 755 763 771 780 783 781 780 779 780 783 785 789 788 785 784 784 785 786
671 677 678 682 694 690 675 674 678 682 694 697 683 674 675 674 674 677 679 680 680 682 690 698 695 683 677 678 681 685 686 685 685 684 684 686 688 689 691 692 694 695 696 697 699 699 701 702 703 705 705 706 708 709 712 714 717 718 719 721 723 725 729 734 739 746 750 754 760 765 768 773 775 777 779 778 778 781 781 784 785 784 783 783 783 785
671 675 678 681 685 684 677 674 679 696 708 697 674 664 668 670 670 678 686 687 685 682 682 684 680 674 674 676 678 683 685 684 684 684 683 684 687 689 691 691 692 693 694 696 697 697 699 700 701 702 703 704 705 707 710 713 715 717 719 721 724 727 731 736 741 743 745 748 753 756 758 762 764 766 769 771 775 777 777 778 780 780 781 781 781 782
672 674 680 681 679 681 681 681 695 711 703 680 666 664 665 668 669 675 684 686 685 684 679 678 680 676 671 671 672 675 679 679 681 681 680 682 683 685 688 689 690 692 693 694 695 696 696 697 698 699 700 701 703 705 708 711 712 715 718 720 724 727 730 733 734 734 735 737 740 744 749 754 756 757 761 766 771 773 773 774 775 776 778 778 778 779
671 673 677 682 684 686 686 689 700 704 687 671 670 669 666 668 667 671 684 687 684 686 682 677 679 678 674 674 672 670 671 674 678 679 678 680 681 681 683 686 687 689 690 690 691 692 692 694 695 696 697 699 701 703 705 707 710 713 716 719 722 724 726 727 728 729 729 730 733 738 743 749 755 759 762 766 768 769 770 770 771 773 775 775 775 777
667 672 674 680 686 686 690 696 695 693 690 684 679 673 671 673 668 669 686 692 683 683 685 680 678 679 677 677 676 673 671 674 683 686 680 679 679 677 678 681 682 685 685 686 688 689 690 692 693 694 696 698 699 701 702 704 707 710 713 717 719 720 722 723 724 724 725 727 732 738 741 746 753 757 761 764 765 766 767 767 769 771 771 772 773 775
664 669 670 678 686 685 689 700 703 707 708 695 681 672 667 670 668 663 678 692 685 681 685 683 678 678 678 679 679 674 673 684 695 692 681 678 679 678 679 680 680 682 684 685 687 689 690 692 694 695 697 698 700 701 701 703 705 708 712 715 716 718 720 720 720 720 721 724 730 737 741 743 747 750 755 760 762 762 763 765 768 769 768 769 771 772
665 671 669 674 684 684 686 697 708 714 708 691 679 672 665 668 668 663 680 698 690 682 685 684 681 680 678 680 679 674 679 694 700 692 682 680 680 679 681 682 682 684 686 687 688 689 690 692 694 696 698 700 701 702 702 703 705 708 712 714 716 718 718 717 716 717 721 727 735 741 743 742 743 747 750 755 757 759 760 762 765 766 765 766 768 769
672 675 675 679 685 685 688 700 708 706 697 686 680 675 670 666 662 673 702 711 693 684 685 681 682 685 683 682 682 682 688 697 697 691 685 682 681 681 681 682 684 685 687 688 689 690 691 693 694 696 698 699 701 702 703 704 705 707 709 710 713 713 711 711 714 720 729 737 743 746 746 743 742 745 747 751 754 757 758 760 762 763 763 764 766 767
687 687 690 693 693 688 690 701 709 702 690 683 680 677 672 667 670 691 713 707 690 689 688 681 684 690 687 685 687 689 694 694 691 689 685 681 682 684 684 684 685 685 687 689 689 690 692 694 695 696 697 698 700 702 703 703 703 704 705 707 709 708 709 714 720 725 732 737 740 745 747 744 742 743 746 749 752 755 756 758 759 760 760 761 763 765
698 699 700 699 700 700 697 702 711 706 688 680 680 674 669 676 692 704 703 693 690 694 690 685 688 689 687 688 690 691 692 689 686 687 686 685 687 688 687 687 687 688 690 690 691 692 694 695 696 697 697 699 700 701 702 702 702 702 705 707 708 710 713 718 722 724 728 732 737 743 745 743 741 742 745 748 751 752 753 755 756 756 757 758 760 761
695 703 709 707 705 705 703 704 712 708 690 680 680 676 674 684 696 697 692 692 695 694 691 691 691 689 689 691 691 691 691 689 689 689 689 690 691 690 691 691 691 692 693 692 693 694 694 695 697 697 698 699 700 701 702 701 702 703 705 708 710 713 716 719 721 723 726 730 735 740 742 740 740 741 744 747 749 750 750 752 754 754 755 756 757 759
690 697 707 711 707 702 703 706 707 701 690 682 681 683 686 689 689 689 692 696 696 694 694 695 694 693 692 692 694 695 695 695 697 696 694 694 694 693 694 694 694 695 695 694 695 696 696 697 697 698 700 700 701 702 702 702 702 704 707 710 712 715 717 719 721 724 725 725 728 734 738 740 740 742 745 747 747 747 748 750 752 752 753 754 756 757
686 682 687 700 705 701 700 702 698 692 690 687 684 686 690 689 687 688 691 693 694 695 695 696 698 698 695 694 697 698 698 700 702 703 702 700 697 696 696 696 696 698 698 698 698 698 698 699 699 700 702 702 702 703 702 702 704 705 708 711 712 714 716 718 721 723 723 724 726 731 737 740 741 743 744 745 745 746 747 748 750 751 752 753 754 756
679 677 679 691 700 697 696 697 694 693 694 692 689 689 689 690 691 689 688 691 694 693 691 693 696 696 695 696 699 700 701 702 702 704 707 705 702 699 697 697 699 700 699 699 699 699 700 700 701 702 702 702 702 702 702 703 705 707 709 710 712 714 716 718 720 722 723 724 726 732 737 739 739 741 742 743 744 745 746 747 748 749 750 752 753 754
677 676 679 688 695 699 702 700 696 697 698 696 695 694 691 692 693 691 690 693 694 692 691 692 693 694 696 698 701 704 705 704 703 705 706 705 705 703 700 699 699 699 699 699 699 700 701 701 702 702 702 701 701 701 702 705 706 707 709 710 711 713 715 717 720 722 722 723 726 730 734 736 737 739 740 741 742 743 744 746 746 748 749 750 751 752
679 676 681 689 693 696 700 699 696 699 700 698 699 698 695 695 696 694 693 693 692 692 693 693 694 696 697 698 702 706 707 707 707 705 701 701 704 705 703 701 699 699 700 701 700 700 700 700 700 700 699 699 699 700 703 705 706 707 708 709 711 713 714 716 718 720 721 723 725 728 732 734 736 736 737 739 740 741 743 744 746 747 748 749 750 751
679 679 684 690 694 697 700 700 701 705 707 704 703 702 700 700 700 699 697 694 691 692 693 694 696 697 697 698 701 703 704 705 705 703 702 703 705 706 705 702 700 701 702 701 701 700 699 699 699 698 697 698 699 701 703 704 705 706 708 709 711 711 712 714 715 715 717 720 724 727 730 732 734 735 736 737 738 740 742 743 745 746 747 748 749 750
682 686 687 690 697 702 702 699 698 704 711 710 706 704 705 704 702 702 700 696 694 695 695 695 696 696 697 698 699 701 702 702 702 705 706 706 706 706 704 702 701 702 701 701 700 700 698 698 698 697 698 698 699 701 703 703 704 706 707 708 709 708 709 711 712 712 713 716 721 725 728 731 732 734 735 736 737 738 740 742 743 745 746 747 748 749
684 690 692 692 693 693 693 694 694 697 704 707 704 704 705 702 700 700 699 696 696 696 696 696 697 698 700 701 701 703 704 704 704 706 706 705 705 704 702 701 700 700 699 699 699 698 698 698 697 697 698 698 699 701 702 703 704 705 706 707 707 708 708 709 710 712 713 716 721 725 728 730 731 732 733 734 736 737 738 740 742 744 745 746 747 748
Wind_Speed
5 4 3 5 7 7 8 9 9 7 6 7 4 3 8 10 8 10 10 11 15 9 7 9 10 12 15 16 16 15 15 13 13 13 12 12 12 12 12 12 13 12 10 15 22 26 29 31 31 31 31 30 30 30 31 31 31 32 32 31 31 30 29 29 28 27 25 23 22 22 22 21 20 18 17 16 16 15 15 14 13 11 10 8 8 7
4 6 8 8 9 9 9 9 6 4 3 4 4 2 5 8 8 11 11 12 13 8 5 7 8 12 15 16 15 14 15 14 15 15 14 15 14 12 14 14 14 10 7 10 15 20 25 28 29 30 30 30 30 30 31 31 32 33 32 32 32 31 30 30 29 28 28 26 24 23 23 22 20 19 18 17 16 15 14 14 13 11 9 8 8 8
4 6 10 10 8 8 7 5 6 5 5 3 3 4 4 5 4 5 8 12 12 6 5 7 8 10 12 14 14 15 16 15 15 17 16 16 15 13 13 14 13 10 7 8 11 16 21 25 28 29 29 31 32 32 32 32 32 32 32 32 32 31 31 31 29 29 29 27 25 24 22 21 19 18 16 15 13 12 11 10 10 10 9 9 9 8
4 6 10 8 7 7 7 4 7 5 4 4 3 4 3 4 3 4 6 10 8 2 5 8 5 4 6 8 10 14 15 12 13 15 14 15 15 15 16 14 13 13 11 10 11 13 17 21 25 27 28 30 31 31 31 32 32 32 32 32 32 32 31 30 30 30 29 26 24 23 21 18 16 15 13 13 11 9 9 8 8 9 9 10 10 10
5 7 5 7 8 9 7 4 7 6 4 3 5 5 4 5 7 5 6 9 3 4 5 8 4 2 4 7 9 9 10 9 10 13 12 12 14 14 14 13 13 14 13 13 13 13 14 18 23 27 29 30 29 30 32 33 33 33 33 33 33 32 31 30 30 29 28 26 24 22 19 15 14 14 12 11 10 9 9 9 8 7 6 7 8 9
8 8 3 6 7 8 8 6 6 7 4 3 4 8 7 8 8 4 9 11 4 1 4 9 4 4 4 8 10 8 9 11 9 11 13 13 12 11 11 11 12 13 13 13 14 14 15 18 22 25 28 29 29 31 34 35 35 34 34 33 33 32 31 29 29 29 28 27 25 23 20 17 16 16 13 12 13 12 12 10 9 8 7 7 8 8
6 7 5 6 6 7 7 6 6 8 5 3 5 9 9 9 8 7 10 11 6 4 7 9 7 3 4 8 11 9 10 13 10 11 14 12 12 12 11 12 12 12 11 11 12 13 15 18 21 23 27 30 31 33 34 35 35 34 34 34 33 32 30 29 29 28 28 28 26 24 23 21 19 19 17 15 14 13 12 11 10 9 8 8 8 7
6 8 7 7 6 6 6 5 6 9 7 4 6 7 8 8 9 10 11 10 6 3 4 7 4 3 3 9 10 10 10 12 12 12 13 13 14 14 13 13 13 13 13 12 12 13 15 19 22 24 28 31 33 34 34 34 34 34 34 34 33 32 31 29 28 28 28 28 27 25 24 23 21 20 19 16 15 14 13 12 11 10 9 8 6 5
5 9 8 8 6 5 5 5 7 10 6 7 7 7 7 9 10 10 10 8 5 5 4 6 3 3 4 5 5 9 10 13 16 17 16 15 16 15 15 15 14 15 15 14 15 15 16 20 25 29 30 32 33 34 34 35 35 35 34 34 33 32 31 30 29 29 29 28 27 26 24 24 22 20 17 16 16 15 13 12 12 10 9 8 7 6
4 8 9 8 6 6 6 6 8 10 6 7 5 5 4 5 7 8 8 6 4 5 8 11 9 4 4 3 5 7 9 14 17 17 17 15 15 16 15 16 15 14 14 14 15 16 19 24 28 30 30 31 32 34 36 36 35 35 34 33 33 33 32 31 30 30 29 29 28 26 26 25 23 19 17 17 17 15 13 13 12 11 10 10 9 7
5 4 4 6 6 6 7 7 8 11 10 5 1 3 3 1 1 1 2 3 4 4 7 14 15 9 4 4 6 8 13 19 17 14 14 14 15 16 16 15 15 14 13 13 14 14 19 25 27 27 28 30 31 32 34 34 34 34 33 33 33 33 33 32 31 31 31 30 28 28 27 25 23 20 19 19 18 15 14 14 13 11 10 11 10 9
5 5 4 3 5 7 6 5 6 9 9 5 1 3 2 3 4 4 4 3 4 6 6 12 16 11 7 5 7 14 19 21 18 15 17 19 19 17 16 15 15 15 13 13 13 13 15 17 20 23 25 27 29 30 32 33 33 33 33 33 33 33 33 33 33 33 32 31 30 29 28 26 24 22 22 21 19 17 16 14 13 12 12 12 11 10
4 7 6 4 4 6 6 4 4 4 5 5 3 4 3 2 2 1 2 0 4 6 5 10 13 9 8 7 10 17 19 19 18 17 18 21 21 19 17 16 14 13 13 13 13 13 13 13 15 20 23 25 27 29 31 32 32 33 33 34 33 34 34 34 33 34 33 32 31 30 28 27 25 24 23 21 19 18 16 14 14 14 15 14 12 11
3 6 7 5 4 4 8 5 4 4 4 6 5 5 5 3 2 3 4 1 2 6 5 6 10 5 5 5 9 17 21 22 21 20 19 19 20 19 18 17 14 13 14 13 12 12 12 12 15 20 24 26 28 30 32 32 33 33 33 34 35 35 35 35 34 34 34 34 32 30 29 27 26 25 23 21 20 18 17 16 16 16 16 14 12 11
5 6 8 8 4 4 8 7 7 5 5 6 5 6 6 5 5 4 4 4 5 6 3 3 6 5 4 6 10 17 22 21 19 19 17 14 14 15 16 15 14 13 13 12 13 14 13 15 19 22 25 27 29 31 33 33 34 33 34 35 36 36 36 36 35 35 35 34 33 30 28 27 26 25 23 21 19 19 18 17 17 17 16 14 12 11
6 7 7 7 6 6 7 6 7 6 4 4 4 5 5 7 6 3 4 7 5 3 2 2 4 5 5 5 5 8 15 15 13 14 12 10 10 12 12 12 13 13 13 13 13 14 14 16 20 22 24 27 29 31 33 34 35 35 35 36 37 37 37 36 36 36 36 35 33 31 29 27 26 25 22 21 20 19 18 17 16 16 15 13 12 12
4 6 7 5 7 8 9 7 7 7 5 3 3 4 5 6 7 3 2 1 3 3 4 2 3 4 2 5 7 3 8 9 9 11 13 12 12 13 12 12 13 13 13 14 14 15 14 15 19 23 26 27 28 30 33 36 38 39 38 38 38 37 36 36 37 36 36 35 33 32 30 29 27 25 23 22 20 19 17 16 16 16 14 13 12 12
5 4 7 6 9 10 9 8 7 8 8 5 5 6 3 2 3 3 2 1 3 3 4 2 6 4 2 4 5 2 5 8 11 14 15 13 12 14 14 13 14 15 15 15 15 14 13 14 19 24 27 29 32 35 37 39 40 41 40 39 39 38 38 38 38 37 36 36 35 34 32 30 28 25 23 22 21 19 17 17 16 15 14 13 12 13
5 3 7 5 9 8 4 6 8 7 7 5 4 5 5 2 2 1 3 3 2 3 3 2 4 4 4 5 4 4 8 9 10 12 12 13 14 16 16 14 14 14 13 13 13 12 11 13 19 24 27 30 33 35 37 38 37 37 38 39 39 40 40 39 37 36 36 37 36 35 32 31 28 25 23 23 21 19 18 18 17 16 15 14 14 14
4 4 6 5 6 5 2 5 7 8 5 2 1 3 3 3 5 4 3 4 4 3 3 3 3 3 6 6 7 10 11 11 11 10 12 16 18 17 15 13 13 13 12 12 12 12 12 14 20 27 29 32 34 36 36 35 34 35 36 36 37 38 36 35 35 35 36 37 36 34 32 30 28 26 24 23 21 20 19 19 18 17 16 15 15 15
3 4 5 6 4 3 2 5 8 8 6 4 3 4 2 2 2 2 2 3 4 4 3 3 3 5 6 5 9 12 10 11 13 14 14 16 16 15 13 13 13 13 13 13 13 13 13 14 20 27 30 32 33 33 32 32 32 33 33 34 36 35 34 34 35 36 35 35 33 32 32 31 28 27 26 24 22 21 19 19 19 18 16 16 16 16
4 4 6 6 5 4 6 7 7 9 9 8 7 6 6 5 4 3 3 2 2 4 5 4 4 7 6 4 7 9 7 9 13 15 14 13 14 14 12 14 15 13 13 14 13 14 13 13 18 24 27 28 27 28 29 30 31 31 32 35 35 34 34 35 36 35 32 31 29 27 29 30 29 28 27 25 24 21 20 20 20 18 17 17 17 17
4 4 6 8 6 6 10 10 7 9 9 8 7 7 6 5 6 6 5 4 1 1 2 4 3 7 6 4 6 7 6 8 11 12 11 11 12 13 13 14 14 14 15 15 14 13 12 13 18 22 24 26 27 29 31 31 32 33 35 36 34 34 35 35 34 31 30 31 30 29 30 31 30 29 28 26 25 22 20 20 20 19 19 18 17 18
4 4 5 7 6 6 8 9 6 4 5 4 6 6 6 6 6 7 5 5 4 3 2 3 3 6 6 5 5 5 4 6 8 10 11 10 10 12 13 14 13 14 15 14 12 11 10 11 13 16 19 23 26 28 30 31 32 33 34 34 33 35 35 33 30 29 32 35 35 34 34 33 31 30 29 27 25 23 21 20 20 20 19 19 19 19
4 3 5 5 6 6 7 7 6 3 3 4 5 5 7 8 8 5 3 4 3 5 6 5 4 6 6 4 0 3 6 8 9 10 11 11 10 11 13 13 13 14 13 12 11 10 9 9 10 12 17 22 26 28 30 31 32 33 34 35 35 34 32 30 29 33 37 38 35 35 35 34 32 31 30 28 26 24 22 21 21 21 20 20 20 20
7 5 6 7 8 8 7 7 6 3 2 3 3 6 8 10 11 7 3 5 4 4 5 6 5 6 7 4 1 1 5 9 9 9 9 10 12 13 12 12 12 13 12 12 12 10 10 11 12 13 17 23 26 28 29 30 32 33 33 35 35 31 29 29 32 36 38 37 36 36 36 34 33 31 30 30 28 25 23 22 21 21 21 22 21 20
4 4 7 10 11 10 9 9 7 4 4 4 6 8 9 10 12 8 5 5 6 5 4 6 7 5 6 5 4 5 7 9 9 10 10 10 11 12 12 12 12 11 11 12 12 11 11 12 13 14 17 22 26 27 29 30 32 33 33 33 31 28 28 31 34 37 40 42 40 35 32 32 33 33 32 31 29 26 24 22 22 21 22 22 21 19
2 3 8 12 14 15 13 13 9 5 5 8 9 10 10 10 10 9 7 7 7 7 5 9 6 9 9 10 9 9 9 9 9 11 12 12 11 11 10 10 10 9 10 11 11 11 12 12 13 13 15 20 24 25 26 28 30 32 30 28 26 26 29 33 35 38 43 41 33 27 29 33 33 33 33 31 28 26 24 24 22 21 21 22 21 20
4 5 7 10 14 16 15 16 15 8 6 7 8 11 13 12 12 13 11 9 10 9 8 8 9 12 12 11 12 13 13 14 13 12 11 9 9 9 8 9 10 11 12 12 11 10 10 11 12 12 14 18 22 23 24 26 28 27 24 23 26 29 33 36 39 41 41 36 30 29 35 39 36 33 32 30 28 26 25 25 22 21 23 25 24 23
4 6 7 9 12 14 14 16 16 13 11 10 9 11 13 13 16 16 11 10 11 9 8 10 13 13 11 13 16 14 11 9 7 6 7 8 9 9 10 11 12 13 12 11 10 10 11 12 12 12 12 15 19 22 24 25 25 24 24 26 30 32 36 40 41 41 40 38 38 39 39 36 32 30 30 29 27 26 27 26 23 23 27 29 27 24
2 6 6 8 8 10 12 14 15 13 13 13 13 13 11 9 11 11 6 5 5 3 1 8 13 11 8 8 9 6 4 5 5 6 8 10 11 11 11 12 13 12 10 10 10 10 10 10 10 9 10 13 18 22 23 23 23 24 26 29 33 36 39 40 40 40 41 40 39 35 29 25 23 24 27 28 27 26 26 25 26 29 31 30 27 25
1 3 2 6 6 8 10 14 14 10 9 11 13 12 9 7 7 6 5 6 7 5 4 6 8 10 7 2 4 4 5 7 9 10 10 9 10 12 13 13 11 10 9 9 9 9 9 9 8 8 8 11 16 19 21 21 21 25 28 32 35 37 39 40 39 37 32 27 23 19 20 22 24 24 25 26 25 23 22 25 31 34 32 30 27 25
3 2 1 5 6 7 8 10 10 6 5 8 9 8 8 7 6 5 3 1 3 7 8 6 7 9 6 6 7 5 6 8 9 9 8 8 8 9 11 11 9 9 8 8 8 8 8 7 6 7 9 12 16 19 20 22 24 28 32 34 35 35 36 35 29 22 18 17 18 19 24 31 31 26 25 25 22 21 22 28 36 36 33 30 27 24
2 3 3 4 5 7 6 6 7 6 6 7 5 3 6 6 8 10 5 3 2 3 5 5 5 6 8 9 10 9 7 7 6 4 3 5 7 8 8 8 8 7 6 6 7 7 6 6 6 9 13 16 18 19 20 23 27 29 30 31 30 30 30 26 22 21 23 26 28 29 33 36 34 30 30 27 24 24 26 31 36 36 32 29 25 23
3 1 1 1 3 4 3 7 7 7 7 5 4 3 4 8 13 13 8 5 6 4 1 1 2 5 8 9 11 11 9 7 7 5 5 6 7 8 7 6 6 6 6 6 6 6 7 6 7 10 14 16 17 18 20 24 27 27 27 28 27 27 27 27 28 31 34 37 39 39 38 36 34 34 33 29 28 29 30 33 36 34 30 27 25 23
3 1 1 1 1 3 4 5 7 6 3 3 4 3 2 5 10 11 9 8 9 7 4 1 1 1 3 4 6 10 11 10 7 4 6 7 7 8 9 8 7 8 8 7 7 8 8 8 8 10 11 12 14 18 22 26 28 27 27 27 26 28 31 32 33 35 36 39 40 40 40 37 32 31 32 31 31 32 32 33 34 32 29 26 24 23
3 1 1 1 1 3 5 2 2 2 3 4 2 2 1 0 2 7 6 4 6 7 6 1 5 6 5 5 4 6 10 11 7 2 2 4 6 7 6 7 9 9 8 8 8 8 9 10 10 10 10 11 15 20 23 26 28 28 27 27 28 30 33 33 33 34 35 37 37 39 40 37 31 32 34 33 32 32 33 31 31 31 28 24 23 23
2 2 3 3 1 2 6 4 2 4 1 3 6 7 4 2 4 3 8 2 6 8 7 3 5 8 8 6 5 7 9 10 7 3 4 3 3 4 3 4 6 6 5 5 6 6 8 10 10 9 9 11 15 18 21 25 28 27 26 26 28 29 30 30 31 33 34 36 37 39 39 38 37 39 38 35 34 34 32 29 29 28 25 22 23 24
7 2 2 4 1 1 5 5 3 2 2 5 7 11 8 5 5 0 7 1 7 7 6 3 4 5 7 7 5 6 9 7 5 4 6 4 1 3 4 4 4 3 3 3 5 8 9 9 8 7 8 11 13 15 19 23 25 25 23 24 25 26 27 30 33 32 32 34 36 37 37 37 40 41 39 37 36 33 29 27 26 26 24 22 24 25
7 5 4 4 1 0 4 3 2 2 3 6 7 10 11 7 2 5 5 3 6 8 5 5 6 5 4 5 4 6 6 5 6 5 6 3 3 4 3 4 5 5 5 5 6 9 10 10 10 10 11 13 15 16 19 22 24 25 25 26 27 29 32 34 32 26 24 27 32 35 35 37 40 41 38 37 34 28 25 24 24 24 23 22 24 24
4 4 2 2 1 1 4 4 1 1 3 5 6 9 9 6 6 7 5 6 4 8 6 6 9 5 5 7 6 5 4 2 4 2 4 5 7 7 6 5 6 7 7 8 10 11 12 10 10 12 14 15 16 18 21 24 26 26 27 28 29 29 29 26 20 20 25 30 33 33 33 35 38 38 36 33 28 23 22 23 24 24 23 22 22 22
2 1 3 2 2 2 3 4 2 2 3 4 8 9 5 3 4 4 4 1 4 6 5 8 9 7 7 9 7 6 5 4 4 5 7 8 7 6 6 6 7 8 7 7 9 11 12 10 9 11 13 15 17 20 23 26 26 24 23 24 23 21 19 16 17 24 29 30 29 29 31 33 34 32 29 26 23 21 22 23 24 23 21 21 21 21
4 3 3 3 0 1 2 4 3 2 4 6 8 7 4 4 4 5 3 4 5 5 6 8 8 7 8 8 7 8 8 9 9 8 8 8 7 6 6 6 5 5 4 4 5 8 10 11 10 11 13 16 18 21 24 25 23 20 19 18 15 14 15 16 21 26 27 25 24 26 28 30 29 26 22 20 20 22 23 24 23 21 19 19 20 20
3 4 2 3 2 1 2 1 2 4 6 8 4 2 2 3 4 5 6 5 5 5 6 7 7 7 7 8 8 9 9 9 9 8 8 7 6 5 5 4 4 3 2 1 2 4 7 9 10 10 12 15 18 20 22 23 21 18 15 12 12 14 16 17 21 26 27 28 28 25 23 24 24 20 18 19 21 23 24 24 24 22 19 19 19 18
3 5 5 3 1 2 4 3 2 3 4 6 4 6 6 7 8 8 9 7 6 6 5 6 8 8 8 8 9 8 8 7 7 7 7 5 4 4 4 5 5 5 5 5 5 4 4 6 9 10 11 13 16 19 21 22 20 16 12 11 13 16 17 17 21 25 27 29 27 22 19 20 20 18 19 21 23 25 25 25 24 22 20 19 19 18
3 4 3 4 3 2 3 3 3 3 4 5 6 5 7 8 6 7 10 9 6 6 7 8 9 9 9 10 9 8 7 6 6 6 7 7 6 5 4 4 4 4 3 3 4 4 4 7 9 11 11 13 16 19 20 20 17 14 11 11 13 16 16 17 20 23 24 25 23 20 19 20 19 19 20 22 24 25 26 25 23 21 20 19 18 17
2 2 2 4 6 4 2 1 1 3 3 3 5 5 7 7 4 5 8 8 6 7 8 8 9 9 9 9 8 6 5 5 5 4 3 5 6 5 4 3 2 2 2 1 3 5 9 11 11 11 12 14 17 19 19 17 14 12 11 10 10 12 15 18 19 19 18 18 19 20 21 22 21 20 20 21 23 23 23 23 22 20 20 19 18 17
1 1 3 4 4 4 4 3 1 4 4 4 4 5 6 7 6 5 5 6 7 8 8 7 8 7 7 7 7 4 4 4 2 1 0 1 3 5 5 3 1 1 2 4 7 9 12 13 12 13 14 15 17 19 17 15 14 12 9 7 9 13 17 20 19 16 13 14 17 20 22 23 23 22 22 21 20 20 20 20 20 20 20 19 18 17
1 1 2 4 4 5 5 5 6 7 7 6 5 4 3 4 5 5 4 6 8 8 7 7 7 5 6 7 7 5 5 5 3 2 2 1 3 5 5 4 4 5 7 8 10 11 12 12 13 14 14 14 15 16 15 15 14 11 8 9 13 17 19 20 19 18 16 16 19 20 22 23 23 22 21 20 19 19 18 17 17 18 17 16 16 15
2 2 0 5 7 5 3 5 7 7 6 3 2 2 2 3 5 5 4 6 8 8 7 8 8 7 7 8 7 6 6 6 6 4 3 4 5 6 6 6 7 8 8 8 9 10 10 11 12 13 13 12 13 15 15 14 14 12 13 16 18 20 21 22 22 21 19 18 19 19 20 21 21 21 21 21 21 19 17 15 15 15 14 13 13 12
3 2 2 1 3 4 5 5 5 7 7 5 5 4 3 3 6 8 7 8 9 8 9 10 10 9 9 7 7 8 6 6 6 5 4 4 6 7 8 8 8 8 7 7 9 10 10 10 11 12 12 12 13 15 15 15 17 18 19 20 21 22 22 22 20 18 17 18 19 20 22 23 23 22 22 21 21 20 17 14 12 11 10 10 9 9
Wind_Direction
152 171 207 192 197 201 200 192 192 202 174 158 177 204 186 178 186 194 185 178 174 173 193 180 164 167 172 179 184 181 183 187 185 187 190 189 189 188 190 194 194 195 196 189 190 193 194 196 196 195 194 193 194 195 196 196 196 199 200 200 203 206 207 207 207 208 210 209 207 208 210 214 218 220 224 229 234 240 243 244 250 252 246 234 233 237
148 180 220 213 197 198 207 200 181 168 170 182 176 173 200 191 190 195 186 178 174 171 191 178 161 175 180 180 184 179 182 193 189 187 193 193 192 191 191 195 197 194 180 175 183 188 191 194 194 193 192 191 192 194 195 196 197 199 200 201 204 207 208 209 209 209 210 210 210 210 213 218 223 228 233 236 238 242 245 247 245 238 231 227 233 235
190 207 225 216 188 199 225 199 169 188 191 193 179 142 188 225 186 185 190 175 173 179 182 172 171 188 188 181 184 185 188 196 193 190 192 191 192 194 195 195 194 187 172 175 181 182 186 190 190 189 190 191 193 194 196 198 199 199 201 204 206 207 208 210 211 211 212 213 215 217 221 225 229 233 234 234 236 241 245 242 234 231 231 229 229 225
198 238 228 199 159 190 233 193 158 189 196 173 174 150 184 234 180 185 199 175 172 176 158 156 156 191 193 190 197 198 197 199 198 198 196 192 192 195 197 194 189 185 180 180 183 179 180 184 186 187 188 190 192 193 195 197 198 199 201 204 205 207 209 210 212 213 214 216 218 221 227 231 233 230 226 230 237 238 233 225 222 226 226 226 223 214
221 251 217 155 157 187 217 200 155 171 218 214 190 174 179 214 218 211 163 149 110 20 115 119 73 303 201 198 213 212 210 211 204 202 203 203 202 199 197 195 191 189 184 180 181 181 178 180 184 186 187 188 189 191 193 196 197 200 202 204 206 207 208 209 211 213 214 215 216 217 221 225 224 219 220 223 213 198 195 194 192 195 199 206 203 196
235 248 193 148 174 187 205 212 175 171 199 267 221 193 190 201 220 204 136 135 113 338 178 136 128 272 239 207 212 207 211 217 209 204 207 208 208 204 198 199 199 194 189 184 182 181 179 180 182 184 185 185 188 191 193 196 198 200 202 204 205 207 208 209 210 212 213 214 214 213 212 212 210 210 213 208 192 183 185 188 186 185 187 193 192 193
225 224 195 193 194 182 204 220 196 168 152 260 238 197 200 206 202 174 149 153 160 202 202 171 170 243 254 225 216 205 212 219 219 214 212 209 206 204 200 199 200 196 192 189 185 181 179 180 180 182 185 185 188 191 193 195 197 199 201 202 204 206 208 209 210 212 212 213 213 214 214 211 209 209 208 205 201 199 197 195 193 188 186 191 197 204
195 200 200 206 198 184 203 222 196 153 135 237 230 175 191 211 196 176 167 177 182 138 164 183 156 106 213 227 206 195 213 224 229 226 217 211 206 205 203 200 197 195 192 187 187 185 182 182 182 183 186 186 188 189 190 193 195 198 200 202 205 207 210 211 211 211 211 213 214 214 214 213 214 215 212 208 206 204 200 193 187 184 187 193 203 207
192 197 203 198 199 202 207 211 183 149 153 240 222 165 182 209 203 187 179 190 181 120 160 206 160 116 243 250 173 180 210 224 229 228 220 212 206 204 204 202 199 197 194 188 187 188 186 187 187 186 186 187 188 188 190 193 195 199 201 204 207 209 211 212 212 212 212 215 215 213 212 213 216 217 215 209 203 200 196 191 188 190 195 198 203 200
220 198 192 185 200 212 214 211 169 153 190 238 206 151 150 204 212 197 188 184 157 155 191 201 185 184 263 257 161 176 211 223 228 226 221 214 206 205 204 203 201 198 196 194 191 190 190 191 190 189 187 187 189 190 191 194 196 199 201 204 207 209 211 212 212 212 213 214 214 212 211 212 214 211 207 201 197 196 195 194 193 195 198 197 197 195
250 239 185 179 194 196 209 212 169 173 205 223 139 111 80 360 270 180 164 120 141 207 215 197 190 190 231 243 189 187 207 215 219 222 220 214 208 207 204 203 200 197 197 195 194 195 195 194 191 188 187 188 190 190 192 194 196 198 201 203 206 209 210 211 212 212 212 212 212 212 212 213 212 205 198 193 190 191 191 193 196 198 198 195 195 197
263 259 240 216 200 178 194 219 184 185 203 201 171 139 120 333 4 29 10 60 169 230 237 205 195 191 212 239 211 207 212 212 212 214 210 208 208 206 203 203 200 197 196 193 194 196 195 194 191 188 189 189 188 190 192 194 196 198 201 203 206 208 210 211 211 211 211 211 212 213 215 215 211 204 198 195 193 193 192 196 200 199 195 194 196 200
249 242 254 272 243 184 175 221 216 189 175 165 167 139 153 263 352 18 282 223 203 239 242 199 189 197 226 234 212 210 216 216 216 217 210 205 205 201 200 203 200 195 194 193 195 195 193 191 188 188 189 189 189 191 193 195 197 198 201 203 205 208 209 209 210 210 210 211 212 214 216 215 211 206 204 203 202 201 202 204 203 198 195 196 199 202
247 267 257 244 264 197 175 196 221 206 162 161 171 159 171 181 149 210 240 283 250 255 255 187 173 203 267 257 214 207 214 215 214 217 213 206 202 197 199 200 195 191 193 195 195 195 195 192 189 189 189 189 191 193 194 196 198 199 201 203 205 208 209 208 209 209 210 212 214 215 216 214 211 208 209 210 210 209 209 208 205 202 200 202 205 208
198 244 236 217 228 194 188 198 190 179 172 180 169 153 172 174 169 202 209 204 224 242 265 135 160 191 212 228 213 204 214 216 214 220 218 207 199 194 199 199 191 192 193 193 196 197 198 194 191 191 190 191 193 193 194 196 198 199 202 203 205 207 208 207 208 209 210 212 214 215 215 213 211 211 211 213 214 213 210 208 207 206 207 211 214 213
197 233 244 231 224 196 198 204 175 165 212 214 139 131 190 189 178 198 194 189 190 209 241 154 195 217 210 251 265 216 219 215 211 226 223 207 192 188 199 199 191 195 194 192 197 200 200 195 192 192 192 194 195 195 195 196 197 199 202 204 206 208 208 207 208 209 210 211 213 213 212 211 210 211 212 211 211 212 213 213 212 210 212 218 221 217
179 245 265 238 239 224 204 199 180 175 198 197 139 180 215 177 157 168 229 204 113 171 234 192 216 278 283 281 317 298 220 196 182 205 213 205 189 184 196 197 193 197 194 194 199 199 197 192 192 194 195 196 196 197 199 199 199 200 201 203 205 207 208 208 208 208 209 209 210 211 210 210 209 211 213 210 208 211 215 217 216 214 217 220 218 213
159 253 280 213 229 244 212 204 219 192 171 179 205 204 188 119 120 129 172 22 79 188 248 190 195 228 199 236 303 332 191 184 180 191 202 200 186 189 199 195 194 197 196 198 200 197 194 191 193 195 196 197 198 199 201 202 202 202 202 202 203 205 206 208 208 207 207 208 209 210 209 209 210 212 212 210 209 211 213 214 212 213 216 213 208 204
162 241 292 218 213 242 200 193 240 236 201 206 217 179 148 160 224 151 168 181 159 205 255 260 221 206 189 218 243 202 191 193 191 187 189 190 189 198 201 193 193 196 197 200 199 197 195 193 195 196 198 201 201 202 204 205 203 202 203 204 204 205 207 207 206 204 205 207 208 208 208 209 210 211 211 209 209 211 211 210 209 211 212 207 203 205
156 198 272 253 219 235 177 171 220 243 238 216 131 152 153 169 182 182 170 167 177 198 219 263 278 239 222 213 197 204 204 187 179 180 188 194 196 200 196 187 191 194 195 199 198 198 197 195 197 197 199 201 202 204 206 205 204 203 204 205 206 207 206 205 204 203 204 205 206 207 207 209 210 210 209 209 210 211 209 208 208 211 210 206 207 213
167 185 236 270 271 248 227 204 205 212 209 191 197 207 193 139 149 178 176 143 149 164 178 211 260 260 248 207 186 208 210 183 178 183 193 198 197 197 191 185 191 194 195 199 199 199 198 197 198 199 202 203 203 205 205 204 204 205 205 206 206 206 204 203 203 203 203 202 202 204 206 208 210 209 209 210 211 210 208 206 208 213 214 213 216 221
185 185 213 250 264 237 241 236 204 192 192 187 195 204 188 163 131 150 229 251 125 155 171 173 225 260 256 202 192 210 203 186 188 189 193 196 190 190 190 189 192 192 196 200 199 198 198 197 198 199 202 203 204 205 204 204 205 205 206 208 207 205 203 203 202 201 198 195 196 205 210 211 210 210 209 209 211 210 207 206 208 212 216 218 222 224
160 149 196 233 245 235 243 248 221 201 202 202 211 205 179 155 134 150 204 235 207 199 134 125 209 263 262 217 210 224 208 189 194 191 187 186 184 186 190 191 192 195 200 201 197 197 198 196 196 196 198 201 203 204 204 204 204 205 207 208 206 205 204 203 200 195 190 189 195 207 214 215 213 212 211 211 211 211 208 208 210 212 217 221 224 224
157 140 181 228 259 268 267 273 266 215 181 208 245 216 172 174 168 160 175 179 185 202 134 123 237 263 275 261 228 224 199 175 183 185 179 180 184 188 190 191 194 199 205 203 198 198 196 189 189 191 196 201 203 204 204 203 204 206 207 207 206 206 205 200 193 186 186 192 199 205 211 214 214 213 212 213 214 213 212 212 212 214 219 225 227 225
196 179 161 196 240 263 272 277 288 291 170 191 236 215 192 187 165 141 123 137 196 214 162 156 230 251 275 296 265 156 162 169 182 182 176 177 181 189 193 193 196 200 204 202 198 195 185 177 183 191 198 201 203 204 203 203 204 205 206 206 206 207 202 192 187 185 188 193 197 201 206 211 213 214 213 214 215 215 215 215 216 218 222 224 224 225
187 186 163 185 211 222 227 229 235 242 205 203 211 206 205 186 167 161 133 147 215 231 154 156 211 252 281 301 36 156 172 178 189 186 181 184 186 191 193 193 195 197 199 200 196 191 184 185 192 196 200 203 204 204 202 202 204 205 206 207 206 203 194 186 187 187 187 192 197 201 206 207 210 213 214 215 216 216 217 219 220 222 222 221 220 224
157 178 182 190 205 211 209 220 219 163 153 207 209 205 212 197 179 160 126 165 193 169 170 209 197 201 258 239 200 216 202 192 194 187 186 192 194 196 195 193 194 194 196 198 197 194 191 194 199 199 202 205 206 206 203 203 204 204 205 206 203 197 187 184 185 185 187 194 198 201 203 203 209 213 214 215 216 216 219 222 223 222 221 222 222 227
101 200 200 193 207 215 210 218 220 169 170 209 207 204 210 203 182 165 167 187 162 137 217 252 195 173 211 215 202 209 208 205 204 194 191 194 193 194 193 191 190 192 199 201 200 199 197 199 203 203 205 207 208 208 205 205 206 206 205 201 194 187 183 183 184 186 190 192 192 196 201 202 208 215 216 216 216 217 220 222 223 221 222 226 229 231
144 217 215 195 213 222 217 225 228 213 211 221 212 211 208 194 182 187 193 180 155 164 214 226 188 186 200 202 204 205 200 200 202 196 189 182 177 179 180 182 189 197 203 203 202 202 201 205 207 205 206 207 207 206 205 206 208 204 198 191 186 184 184 185 187 189 190 187 185 198 205 203 206 213 215 215 216 218 221 222 222 220 223 229 233 235
166 216 207 190 218 228 220 228 233 228 234 238 230 224 215 198 191 195 196 176 169 190 203 178 181 199 202 198 204 205 196 192 183 163 158 163 170 176 176 183 196 202 202 201 201 203 206 210 211 208 207 206 205 203 203 205 204 196 189 185 184 185 187 189 189 188 186 185 191 201 203 201 206 211 211 213 217 220 221 222 220 220 224 229 232 238
178 230 204 173 211 237 223 225 230 227 230 237 240 237 220 201 198 195 179 161 171 218 212 161 179 209 226 209 197 178 126 109 124 151 169 178 178 176 181 192 200 201 199 201 204 206 212 216 215 213 210 208 208 205 203 203 197 190 186 184 186 189 190 190 190 189 188 189 194 198 192 193 212 219 213 213 219 223 226 228 226 224 227 230 232 239
163 246 219 147 187 234 225 222 226 221 223 242 255 246 210 175 187 190 162 162 172 165 118 128 178 217 233 154 107 106 120 142 170 183 186 188 183 178 186 193 195 196 197 201 207 210 217 220 215 214 215 214 211 208 205 199 188 184 187 188 191 192 191 191 191 191 189 185 183 179 174 191 218 228 220 216 220 222 227 237 238 234 233 233 234 238
141 162 208 157 183 236 232 211 203 185 201 245 257 231 193 173 158 131 86 58 144 141 141 161 208 217 192 142 137 158 169 174 191 197 187 185 183 183 189 188 186 192 194 196 207 213 216 216 209 208 215 217 214 211 206 196 187 189 193 194 194 191 189 190 187 178 169 163 165 171 181 197 212 220 219 217 217 217 220 234 244 243 238 236 236 238
113 135 210 186 182 228 228 166 147 157 199 235 260 205 173 160 127 110 88 4 14 128 168 203 226 187 155 154 161 169 179 182 188 196 176 168 172 177 185 185 180 182 189 198 207 210 208 202 198 206 213 216 216 212 205 198 195 197 197 195 193 188 183 178 169 161 160 166 178 187 191 198 206 208 211 212 213 217 223 233 244 246 241 239 238 238
324 94 211 197 164 201 178 129 149 198 219 246 312 357 112 125 116 104 86 44 20 360 322 329 278 194 172 168 161 155 157 159 156 152 145 156 166 161 163 179 183 178 188 200 204 208 212 202 196 204 210 213 211 204 199 198 197 197 196 194 189 181 175 172 172 175 175 177 186 192 193 198 204 202 202 205 209 217 227 234 241 244 243 241 238 237
286 299 134 81 110 159 141 148 181 208 261 323 343 355 54 105 105 87 54 18 11 3 348 38 56 174 154 145 147 147 145 137 132 147 160 165 166 153 152 172 185 185 190 193 193 200 205 202 205 214 214 208 200 196 196 195 194 193 191 189 184 178 178 179 180 182 182 182 186 191 192 198 202 198 199 204 210 218 229 236 241 244 242 241 240 238
218 177 111 105 185 149 130 144 176 73 4 335 320 294 289 333 120 105 81 351 345 12 360 11 111 96 84 86 102 128 127 115 106 120 208 189 177 166 163 174 177 180 187 187 188 198 205 211 220 227 222 206 197 197 196 193 191 188 183 182 182 182 183 184 185 186 186 181 182 189 193 193 192 193 200 208 214 221 231 239 243 242 239 239 240 238
115 155 165 162 206 110 106 109 72 61 56 253 273 283 293 320 272 142 103 6 322 5 3 349 114 112 110 111 122 128 114 102 113 175 265 273 190 181 204 202 181 176 182 186 194 208 216 219 222 224 216 204 199 199 195 189 186 181 177 180 183 183 186 189 190 190 186 179 180 190 194 190 189 193 200 210 218 223 231 240 244 241 239 240 240 238
23 32 113 112 97 67 102 121 132 118 209 246 276 295 313 326 289 89 92 18 302 345 6 19 63 86 112 124 131 117 105 110 147 208 275 299 209 169 181 178 154 131 139 179 200 203 198 193 189 187 189 192 194 194 190 185 179 174 174 180 182 184 191 196 197 193 183 176 181 194 197 192 191 196 200 209 219 225 231 240 245 243 241 241 240 240
5 1 36 61 10 40 99 97 114 141 238 264 281 298 306 311 348 87 108 234 296 336 358 70 60 30 64 86 69 69 87 140 185 239 292 335 54 63 105 132 128 124 129 139 158 169 165 158 156 159 171 185 190 189 185 179 173 173 178 181 183 191 199 202 198 185 171 173 186 198 200 194 193 198 203 211 219 227 233 242 245 243 241 241 239 239
14 354 7 74 26 19 89 97 91 213 244 267 284 292 299 328 55 97 169 230 323 348 351 75 83 64 57 62 60 61 63 164 193 257 342 43 61 46 43 72 95 103 116 130 140 146 146 147 157 166 176 188 188 185 183 178 175 180 183 184 189 199 203 201 186 167 169 183 193 201 203 197 195 200 206 212 221 229 237 244 245 241 239 238 237 236
81 2 334 18 51 20 84 101 69 279 259 297 308 302 312 55 91 141 188 223 22 7 8 60 75 75 69 68 70 72 52 36 55 51 39 48 55 45 35 43 62 70 84 115 137 144 141 138 149 162 174 186 187 186 185 182 181 185 186 187 196 200 195 186 175 173 179 186 194 203 206 200 198 204 208 213 221 228 237 243 241 236 233 232 230 230
151 120 333 304 231 60 64 75 90 204 264 322 330 326 5 83 154 175 118 58 33 20 36 58 59 52 62 70 66 61 50 35 32 39 47 53 57 54 47 44 51 63 87 124 145 155 149 142 149 163 175 183 187 189 188 185 184 186 186 188 193 186 177 178 176 173 175 181 192 206 210 205 203 207 211 216 225 233 237 238 234 229 228 226 224 222
156 139 177 227 226 95 103 122 178 210 277 324 1 79 55 75 129 129 99 77 55 43 46 53 47 41 61 75 65 52 48 35 19 14 23 38 50 55 52 44 39 35 13 19 74 134 147 148 155 167 176 182 186 189 189 188 187 184 180 178 176 174 175 175 171 170 175 183 191 204 216 215 212 217 224 230 238 239 236 232 228 227 228 225 220 217
191 173 160 155 180 159 151 176 230 244 303 341 40 104 108 99 103 108 106 97 79 71 71 64 51 40 49 69 72 62 54 42 19 0 351 357 25 51 45 24 17 9 355 3 33 71 132 156 160 162 169 181 189 190 191 192 188 176 168 168 173 178 181 176 175 180 187 189 191 204 224 227 223 229 239 243 244 239 231 226 224 222 220 218 216 218
154 159 138 120 144 131 83 55 19 22 19 18 39 76 95 98 104 105 99 94 88 87 85 77 66 51 43 51 58 56 53 52 42 17 345 333 346 9 17 11 9 9 13 38 69 94 130 149 156 161 169 183 193 193 193 194 185 168 164 174 179 183 187 185 186 191 193 192 195 210 227 229 227 232 241 244 240 233 227 224 222 217 214 214 214 217
114 140 110 118 140 130 84 15 15 42 24 20 43 62 72 73 77 91 95 105 114 98 89 87 83 75 62 56 55 47 38 47 56 41 343 322 328 327 319 322 346 358 14 81 126 149 154 155 160 171 179 188 196 196 193 189 181 170 171 181 189 193 197 196 196 196 193 192 199 213 224 228 230 233 236 234 227 222 222 223 224 220 217 216 216 218
150 128 108 114 124 115 130 178 116 63 41 16 38 60 69 72 70 71 90 114 112 96 93 94 89 89 86 82 85 76 36 30 65 146 286 331 313 302 296 292 297 283 223 202 190 179 171 169 173 183 190 195 197 195 191 187 185 182 176 183 196 195 193 193 191 186 186 194 204 214 223 229 231 229 223 216 211 211 214 217 219 219 218 219 222 226
317 11 116 125 104 85 105 135 121 84 57 32 27 36 48 81 90 79 79 90 88 86 91 89 84 89 89 86 93 90 54 27 360 320 320 291 254 259 264 258 236 218 209 204 199 193 187 185 187 191 199 203 195 188 186 189 190 187 181 187 190 183 179 180 178 174 180 198 209 217 223 225 224 218 208 201 197 198 200 201 205 210 214 220 226 228
60 14 157 135 130 133 153 159 147 123 98 94 116 116 165 173 130 107 91 77 74 75 81 81 76 68 60 56 59 63 49 24 5 340 273 240 232 230 227 223 215 210 204 197 198 201 199 196 197 199 202 202 192 183 185 189 189 187 187 188 183 172 165 168 170 169 178 196 211 218 218 214 211 206 200 195 191 187 185 189 197 204 212 219 221 220
103 71 354 83 136 149 149 146 138 120 115 131 138 128 151 151 102 88 77 71 71 67 68 73 69 59 54 49 47 51 40 11 2 350 308 275 258 243 229 216 209 208 202 191 188 194 196 195 199 201 199 195 190 186 187 187 184 183 182 179 175 168 161 160 163 166 176 195 211 216 210 204 201 197 193 190 188 187 183 181 184 191 197 203 205 206